RH
32 25 20 18 17 16 15 12 9 6 3 2 2 2 2 2 2 2 1 1 1 1 1 2 2 2 2 2 3 3 3 3 3 3 3 4 4 4 4 3 3 3 3 3 3 3 3 3 3 2 2 2 2 2 2 2 2 3 3 3 2 4 11 30 50 70 88 93 92 89 88 88 91 93 95 95 95 95 96 97 97 97 96 96 96 97 98 99 99 99 99 98 98 99 98 97 96 96 95 95 95 94 93
19 14 11 11 12 12 12 10 7 5 2 2 1 1 1 1 1 1 1 1 1 2 2 2 2 2 3 3 3 3 3 3 3 3 4 4 4 4 4 4 4 4 4 3 3 3 3 3 3 3 3 3 3 3 3 3 3 3 3 3 2 4 10 19 31 47 68 84 88 86 82 82 83 86 90 89 90 92 94 96 97 96 93 91 92 95 97 98 98 99 99 99 98 97 98 96 96 96 95 95 94 93 93
8 6 5 6 7 7 8 6 5 3 2 2 1 1 1 1 2 2 2 2 2 2 3 3 3 3 3 3 3 3 3 3 3 4 4 4 4 4 4 4 4 4 4 4 4 4 4 3 3 3 3 3 3 3 3 3 3 3 3 3 2 4 9 15 22 31 43 61 72 77 78 77 76 77 81 80 81 84 89 92 94 95 93 88 87 89 95 96 97 98 99 99 99 99 98 96 96 97 96 95 94 93 92
5 4 4 4 4 4 4 4 3 2 2 2 1 1 1 1 2 2 3 3 3 3 3 3 3 3 3 3 3 3 3 4 4 4 4 4 4 4 4 4 4 5 4 4 4 4 4 4 4 4 4 4 4 3 3 3 3 3 3 3 3 4 8 12 17 23 29 37 48 59 69 72 72 71 72 72 74 77 80 83 86 87 86 83 81 82 86 92 94 95 97 98 99 99 99 99 98 98 97 96 95 94 93
4 4 4 4 3 3 3 3 2 2 2 2 1 1 1 2 2 3 3 3 3 3 3 3 3 3 3 3 4 4 4 4 4 4 4 5 5 5 5 5 5 5 5 5 5 5 5 5 4 4 4 4 4 4 4 4 4 4 4 3 4 5 6 10 15 20 25 27 32 39 51 62 68 69 66 65 67 71 75 76 77 79 77 75 72 72 76 85 89 90 93 95 97 98 97 98 98 97 98 97 96 95 94
4 4 4 4 3 3 3 2 2 2 2 1 1 1 1 2 2 3 3 3 3 3 3 3 3 3 4 4 4 4 4 4 4 4 4 5 5 5 5 5 5 5 5 5 5 5 5 5 5 5 5 5 5 5 5 4 4 4 4 3 4 6 9 10 13 18 25 27 28 29 32 46 57 64 62 60 61 64 69 71 71 69 69 67 65 65 67 74 80 84 87 91 94 97 98 98 98 99 99 98 98 97 96
4 4 4 4 3 3 2 2 2 2 2 1 1 1 2 2 3 3 4 4 4 4 4 4 4 4 4 4 4 4 4 4 4 4 5 5 5 6 6 6 6 6 6 6 6 6 6 6 6 6 6 6 6 6 5 5 5 5 4 4 5 7 11 10 11 15 21 26 28 28 27 31 41 51 55 53 53 56 61 65 66 65 61 59 59 60 60 64 69 74 78 83 89 93 96 96 95 95 98 99 99 97 95
5 4 4 4 4 3 3 3 2 2 2 1 1 2 2 3 3 3 4 4 4 4 4 4 4 4 4 4 4 4 4 4 4 4 5 5 5 6 6 6 6 6 6 6 7 7 7 7 7 7 7 7 7 7 6 6 6 6 5 5 5 7 10 11 12 12 14 20 24 26 26 25 29 35 41 43 43 44 49 55 58 59 57 55 53 54 56 59 62 65 68 72 78 85 90 93 94 95 94 96 98 98 98
6 5 5 4 4 4 3 3 3 3 2 2 2 2 2 3 3 4 4 4 4 4 4 4 4 4 4 4 4 4 4 4 4 5 5 5 5 6 6 6 6 7 7 7 7 7 7 8 8 8 8 8 8 8 7 7 7 6 6 5 5 6 9 11 12 12 12 13 17 21 22 21 22 24 29 33 34 35 37 43 48 51 52 51 49 48 49 54 57 59 60 63 68 74 81 86 90 93 94 95 96 96 97
8 7 6 5 5 4 4 4 3 3 3 3 3 3 3 3 3 4 4 4 4 4 4 4 4 4 4 4 4 4 4 4 4 5 5 5 5 5 6 6 6 7 7 7 7 8 8 8 8 8 8 9 9 8 8 8 8 7 7 6 6 7 8 9 10 10 11 11 12 13 16 16 17 19 22 24 27 29 29 34 39 43 47 46 45 44 42 47 50 52 53 56 59 65 72 78 83 88 91 93 94 95 95
10 9 8 7 6 5 4 4 4 3 3 3 3 3 3 3 3 4 4 4 4 4 4 4 4 4 4 4 4 4 4 4 4 5 5 5 5 5 6 6 6 7 7 7 7 8 8 8 9 9 9 9 9 9 9 9 9 8 8 8 7 7 8 9 9 9 8 9 9 8 9 10 13 16 17 20 23 25 26 28 32 37 41 43 43 41 38 41 44 46 46 48 52 58 64 71 76 80 85 87 89 91 93
12 11 10 9 8 6 5 5 4 4 3 3 3 3 3 3 4 4 4 4 4 4 4 4 4 4 4 4 4 4 4 4 5 5 5 5 5 5 6 6 6 6 7 7 7 7 8 8 9 9 9 9 9 10 10 9 9 9 9 8 8 8 8 9 9 9 7 6 6 6 6 7 9 13 15 17 19 22 23 25 28 32 36 40 41 39 36 38 40 41 40 41 45 52 58 65 70 73 76 78 80 83 86
15 14 12 11 10 8 7 6 5 4 4 4 4 4 4 4 4 4 4 4 4 4 4 4 4 4 4 4 4 4 5 5 5 5 5 5 5 5 6 6 6 6 7 7 7 7 8 8 8 9 9 9 10 10 10 10 10 10 9 9 9 9 9 9 9 9 8 6 5 4 5 5 6 7 10 12 15 17 18 21 24 28 33 36 38 38 36 36 38 38 38 37 40 46 54 59 64 67 68 69 70 72 77
18 16 15 14 12 10 9 8 6 5 5 4 4 4 4 4 4 4 4 4 4 4 4 4 4 4 5 5 5 5 5 5 5 5 5 5 5 6 6 6 6 6 6 7 7 7 7 8 8 8 9 9 9 10 10 10 10 10 10 10 10 10 10 10 10 10 9 8 6 4 4 4 4 5 5 7 9 11 13 15 19 24 29 33 36 37 36 36 37 39 39 37 39 43 51 56 61 64 64 63 63 64 68
20 19 18 16 15 13 11 10 8 7 6 5 4 4 4 4 4 4 4 4 4 4 4 4 4 5 5 5 5 5 5 5 5 5 5 6 6 6 6 6 6 6 6 6 7 7 7 7 8 8 8 8 9 9 9 10 10 10 10 10 10 10 10 10 10 10 10 9 7 6 4 3 3 4 4 4 4 5 7 10 13 18 25 29 33 35 35 35 37 40 42 40 41 44 51 56 59 61 62 59 58 59 62
23 21 20 19 17 16 14 12 10 9 7 6 5 5 4 4 4 4 4 4 4 4 4 4 4 5 5 5 5 5 5 5 5 6 6 6 6 6 6 6 6 6 6 6 6 6 7 7 7 7 8 8 8 9 9 9 10 10 10 10 10 10 10 10 11 11 11 10 9 8 6 4 3 3 3 3 3 3 3 5 8 12 19 24 29 32 33 34 36 39 43 44 44 46 52 57 62 65 63 58 55 54 58
24 23 22 21 20 18 17 15 13 11 10 8 7 6 5 5 5 4 5 5 5 4 4 5 5 5 5 5 5 5 6 6 6 6 6 6 6 6 6 6 6 6 6 6 6 6 6 7 7 7 7 7 8 8 8 9 9 10 10 10 10 11 10 11 11 11 11 11 11 10 8 6 5 4 3 3 3 3 3 3 5 8 13 19 24 27 28 30 33 36 41 44 46 48 52 60 67 70 68 60 55 53 55
26 25 24 23 22 21 19 18 16 14 13 11 9 8 6 6 5 5 5 5 5 5 5 5 5 5 5 5 5 5 5 6 6 6 6 6 6 6 6 6 6 6 6 6 6 6 6 6 7 7 7 7 7 7 8 8 9 9 10 10 10 11 11 11 11 11 12 12 12 11 10 9 7 5 4 3 3 3 3 3 3 5 9 14 19 23 24 27 29 33 38 42 45 47 51 61 68 73 76 67 59 54 54
27 27 26 25 24 23 21 20 19 18 16 14 12 10 9 7 6 6 6 5 5 5 5 5 5 5 5 5 5 5 5 5 5 6 6 6 6 6 6 6 6 6 6 6 6 6 6 6 6 7 7 7 7 7 7 8 8 9 9 10 10 10 11 11 11 11 12 12 12 12 12 11 9 7 5 4 3 3 3 3 3 4 5 10 16 20 23 26 29 33 37 40 43 45 48 58 67 77 88 78 68 60 57
28 28 27 26 26 25 24 23 21 20 19 18 16 14 11 10 9 8 7 6 6 6 6 6 6 6 6 5 5 5 5 5 5 6 6 6 6 6 6 6 6 6 6 6 6 6 6 6 6 6 7 7 7 7 7 7 8 8 8 9 10 10 10 11 11 11 12 12 12 13 13 12 11 9 7 5 4 3 3 3 3 3 4 7 13 18 23 27 30 34 39 42 45 47 48 55 67 82 96 90 80 71 66
29 29 29 28 27 26 25 25 24 23 22 21 19 17 15 13 11 10 9 8 8 8 7 7 7 7 6 6 5 5 5 5 6 6 6 6 6 6 6 6 6 6 6 6 6 6 6 6 6 6 6 6 6 6 7 7 7 7 8 8 9 9 10 10 11 11 12 12 12 12 13 13 12 11 9 7 5 4 3 3 3 3 3 5 10 16 23 28 32 36 41 46 51 53 54 59 69 82 99 97 91 84 77
30 30 30 29 29 28 27 27 26 25 25 23 22 21 19 17 15 13 12 11 11 10 9 9 9 8 7 6 6 6 6 6 6 6 6 6 6 6 6 6 6 6 6 6 6 6 6 6 6 6 6 6 6 6 6 6 7 7 7 7 8 9 9 10 10 11 11 12 12 12 12 12 12 12 11 9 7 5 3 3 3 3 3 4 7 13 20 26 31 35 40 49 59 66 66 68 72 81 100 99 96 91 86
29 30 30 30 30 30 29 29 28 27 26 25 25 24 23 21 19 17 16 15 14 13 12 11 11 10 9 8 7 7 7 7 7 7 7 7 7 7 6 6 6 6 6 6 6 6 6 6 6 6 6 6 6 6 6 6 6 6 6 7 7 8 8 9 10 10 11 11 12 12 12 12 12 12 12 11 9 7 5 4 3 3 4 4 6 10 15 21 27 33 39 50 64 76 82 79 78 83 99 99 97 94 91
29 29 30 31 31 31 31 30 29 29 28 27 27 26 26 24 23 21 20 19 18 17 16 15 14 13 11 10 9 9 8 8 7 7 7 7 7 7 7 7 6 6 6 6 6 6 6 6 6 6 6 6 6 6 6 6 6 6 6 6 6 7 7 8 9 10 10 11 11 12 12 12 12 12 12 12 11 9 7 5 4 4 4 4 6 9 13 17 23 29 37 49 66 82 92 91 87 87 99 99 98 96 94
28 29 30 30 31 31 31 31 30 30 29 29 29 28 28 27 26 25 24 23 22 21 20 19 18 17 16 14 12 11 10 9 9 8 8 8 8 8 8 7 7 7 6 6 6 6 6 6 6 6 6 6 6 6 6 6 6 6 6 6 6 6 7 7 8 9 10 10 11 11 11 12 12 12 12 12 12 11 11 9 6 4 4 5 7 10 14 17 21 28 37 47 66 85 95 97 96 96 99 100 99 98 97
28 28 29 30 30 31 32 31 31 31 30 30 30 30 29 29 28 27 27 26 26 25 24 23 22 21 20 18 16 14 13 12 11 10 10 10 10 9 9 9 8 8 7 7 7 7 6 6 6 6 6 6 6 6 7 7 6 6 6 6 6 6 6 6 7 8 9 10 10 11 11 11 12 12 12 12 12 12 13 12 9 6 5 5 7 11 16 18 21 27 37 46 62 80 93 97 98 98 100 100 100 99 98
27 28 28 29 30 31 31 32 32 32 31 31 31 31 31 30 30 30 29 29 28 28 27 26 26 24 24 22 20 19 17 15 14 13 13 12 12 11 11 10 10 9 9 8 8 7 7 7 7 7 7 7 7 7 7 7 7 6 6 6 6 6 6 6 6 7 8 9 9 10 11 11 11 12 12 11 11 11 12 12 12 10 7 6 8 11 16 19 22 27 36 45 57 72 89 96 99 99 100 100 99 99 99
26 27 27 28 29 30 31 31 32 32 32 32 32 32 32 32 32 32 31 31 31 30 30 29 29 28 27 26 25 23 22 20 18 17 16 15 15 14 14 13 12 11 11 10 10 9 9 8 8 8 8 7 7 7 7 7 7 7 6 6 6 6 5 5 6 6 7 8 9 9 10 10 11 11 11 11 11 11 11 12 13 13 11 8 8 10 14 17 20 27 42 51 58 67 82 95 98 98 100 100 99 98 98
25 26 26 27 28 28 29 30 31 31 32 32 32 32 32 33 33 33 33 33 32 32 32 32 31 31 30 29 29 28 26 24 22 21 20 19 18 18 17 16 15 15 14 13 12 12 11 10 10 9 9 8 8 7 7 7 7 7 6 6 6 5 5 5 5 6 6 7 8 9 9 10 10 11 12 12 11 11 10 11 13 14 14 11 10 9 10 13 17 27 51 54 58 63 70 84 94 99 99 99 97 96 95
23 24 25 25 26 27 28 29 30 30 31 31 31 31 32 33 33 33 34 34 34 34 33 33 33 33 32 32 31 31 30 28 26 25 24 22 21 21 20 20 19 18 18 17 16 15 14 13 12 11 11 10 9 8 8 7 7 7 6 6 6 5 5 5 5 5 5 6 7 8 9 9 10 10 11 12 12 11 11 11 13 14 16 15 13 11 9 10 13 18 25 40 53 63 67 71 85 98 100 99 97 95 93
21 22 22 23 24 25 26 26 27 28 29 30 30 30 31 32 33 33 34 34 34 35 35 35 34 34 34 34 33 33 32 31 30 29 27 26 25 24 24 23 22 22 21 20 20 19 18 17 16 15 14 12 11 10 9 8 8 7 7 6 6 5 5 5 4 4 5 5 6 7 8 8 9 10 11 11 12 12 12 11 12 14 16 16 15 14 11 10 11 14 21 45 61 71 71 68 74 86 99 99 98 96 91
21 21 21 22 22 23 23 24 25 26 27 28 28 29 30 31 32 33 33 34 34 35 35 35 35 35 35 35 35 34 34 33 33 32 31 30 29 28 27 26 26 25 25 24 23 23 22 21 20 19 17 16 14 13 11 10 9 8 8 7 7 6 5 5 4 4 4 5 5 6 7 7 8 9 10 11 12 12 12 12 12 13 15 16 16 16 15 13 12 13 17 33 47 59 68 72 76 81 86 93 96 95 91
23 22 22 22 22 22 22 22 23 24 25 26 27 28 29 30 31 31 32 33 34 34 35 35 35 35 35 35 35 35 35 35 35 35 35 34 33 32 31 30 29 29 28 27 26 26 25 25 24 23 21 20 18 17 15 13 12 10 9 8 8 7 6 5 5 5 4 4 4 5 6 6 7 8 9 10 11 12 12 12 12 12 13 14 15 15 15 15 14 15 16 26 42 59 68 74 75 73 72 80 85 88 91
27 26 25 24 23 23 22 22 22 23 24 25 26 26 27 28 29 30 31 32 32 33 34 34 34 35 35 35 35 35 35 35 36 36 36 36 36 35 34 33 33 32 31 30 30 29 28 27 27 26 25 23 22 20 18 17 15 13 12 10 9 8 7 7 6 5 5 5 4 5 5 6 6 7 8 9 10 11 12 12 12 11 11 12 12 13 13 14 15 17 18 24 33 45 59 67 73 75 73 72 75 80 87
33 32 30 29 27 26 25 24 23 23 23 24 25 26 26 27 28 29 29 30 31 31 32 33 33 34 34 34 35 35 35 35 35 36 36 37 37 36 36 36 35 35 34 33 33 32 31 30 30 29 28 26 25 24 22 21 19 17 15 13 12 10 9 8 8 7 6 5 5 5 5 5 5 6 7 8 9 10 11 12 12 12 11 12 12 12 12 14 16 18 20 23 31 41 52 61 69 74 74 74 74 78 85
37 36 35 34 32 31 29 27 26 25 25 25 25 25 26 26 27 28 28 29 29 30 31 31 32 33 33 34 34 34 35 35 35 35 36 36 37 37 37 37 37 36 36 36 35 35 33 33 32 32 31 29 28 27 26 24 22 20 18 17 15 13 12 11 10 8 7 6 6 5 5 5 5 5 6 7 8 9 11 12 12 12 12 12 11 11 11 12 15 18 20 22 26 31 39 50 59 66 68 73 75 77 82
39 38 37 36 35 34 33 31 30 29 28 27 26 26 26 26 26 26 27 28 28 29 29 30 31 31 32 33 34 34 34 35 35 35 35 36 36 36 37 37 38 38 38 38 37 37 36 35 35 34 33 32 31 30 29 27 26 24 22 20 18 17 15 14 12 10 9 8 7 6 6 5 5 5 5 6 7 8 10 11 12 13 12 12 12 12 11 12 14 16 17 19 22 26 30 38 44 50 60 65 73 79 81
40 39 38 37 36 35 34 34 33 33 32 31 30 29 27 27 26 26 26 27 27 28 28 29 29 30 30 31 32 32 33 34 34 34 35 35 35 35 36 36 37 38 38 38 38 38 37 37 37 36 35 35 34 33 32 30 29 28 26 24 22 21 19 17 15 13 11 10 8 8 7 6 6 5 5 5 6 7 9 10 12 13 13 13 12 12 12 12 12 13 14 17 20 22 25 30 35 40 50 56 62 69 76
40 40 39 38 36 35 35 35 35 35 35 34 34 33 31 30 29 28 28 27 27 27 28 28 29 29 29 29 30 30 31 31 32 32 33 33 34 34 34 35 36 36 37 38 38 38 38 38 38 37 37 36 36 35 34 33 32 31 30 28 26 25 23 21 19 16 14 12 11 9 8 7 7 6 6 5 6 6 8 10 11 12 13 13 13 13 12 12 12 13 13 15 17 19 21 24 27 31 37 45 53 62 71
39 39 38 37 36 35 35 35 36 36 36 36 36 36 36 35 34 33 31 31 30 29 29 29 29 29 29 29 29 29 29 30 30 30 31 31 31 32 32 33 34 34 35 36 36 37 37 37 38 38 37 37 37 37 36 35 35 34 33 31 30 29 27 25 22 20 18 15 13 11 10 9 8 7 6 6 6 6 7 9 10 12 13 14 14 14 13 12 12 12 13 13 13 14 16 20 24 27 30 37 46 56 66
38 37 37 36 35 35 36 36 37 37 38 38 38 38 38 38 37 37 36 35 34 34 33 32 32 31 30 30 29 29 29 29 29 29 29 29 30 30 31 31 32 32 33 34 35 35 36 36 37 37 37 37 37 37 37 37 36 36 35 34 33 32 30 28 26 23 21 19 17 14 12 10 9 8 7 6 6 6 6 8 10 11 13 14 14 14 14 13 12 12 12 12 12 12 14 17 20 24 28 32 40 52 64
38 37 37 36 36 36 36 37 37 38 38 38 38 38 39 38 38 38 38 38 37 36 36 35 35 34 33 32 31 31 30 29 29 28 28 28 28 29 29 30 30 31 31 32 33 34 34 35 35 36 36 37 37 37 37 37 37 36 36 35 35 34 32 31 29 27 25 23 20 17 14 12 10 9 8 7 7 6 6 7 9 11 13 14 15 15 15 14 13 12 12 11 11 12 13 14 17 21 27 33 42 53 63
40 39 38 38 37 37 38 38 38 39 39 39 39 39 39 38 38 38 38 38 38 38 37 36 36 36 35 34 33 32 31 30 29 29 28 28 28 28 28 29 29 29 30 30 31 31 32 33 33 34 35 35 35 36 36 36 36 36 36 36 35 35 34 33 32 30 29 26 23 19 16 14 12 10 9 8 7 7 6 7 8 10 12 14 15 15 15 15 14 13 12 11 11 11 11 12 15 18 24 32 40 49 58
41 40 40 39 39 39 39 40 40 40 40 40 40 40 40 39 39 40 39 39 39 38 37 36 36 36 36 35 34 33 32 31 30 30 29 29 28 28 28 28 28 28 29 29 29 30 30 31 31 32 33 33 34 35 35 35 36 36 36 36 35 35 35 34 34 33 31 29 26 22 19 16 14 12 10 9 8 7 6 7 8 9 12 14 15 15 15 15 15 14 13 12 11 10 10 11 13 16 20 27 34 42 52
41 41 41 40 40 40 40 40 41 42 42 42 41 41 40 40 40 40 40 39 39 38 38 36 36 36 36 35 34 34 33 32 31 31 30 30 29 29 28 28 28 28 28 28 28 29 29 29 30 30 31 32 32 33 34 34 35 35 35 36 36 36 36 36 35 35 33 31 28 25 22 19 17 14 12 10 9 8 7 7 7 9 11 13 15 16 16 16 16 15 14 13 11 10 9 11 12 14 17 22 28 37 50
42 42 41 41 40 40 40 41 42 43 43 42 42 41 40 40 40 39 39 38 38 37 37 37 37 37 36 36 35 34 33 33 32 32 32 31 30 30 30 29 29 28 28 28 28 28 28 28 29 29 30 30 31 31 32 33 33 34 35 35 36 36 36 36 36 36 35 32 30 27 25 22 19 17 14 12 10 9 8 8 7 8 10 12 14 16 16 17 17 16 15 14 12 10 10 10 11 13 15 19 24 31 43
42 42 42 41 41 41 41 42 43 43 43 42 42 41 40 39 39 39 38 38 38 38 38 38 38 38 38 37 36 35 34 34 34 33 33 32 32 32 31 31 30 30 29 29 29 29 29 29 29 29 29 29 29 30 30 31 31 32 33 34 35 35 36 36 37 36 36 34 31 29 27 25 22 19 16 14 12 10 9 8 7 8 9 12 14 15 17 17 18 18 17 16 14 12 10 9 10 12 15 18 22 27 33
42 42 42 41 42 42 42 43 43 43 43 42 42 41 39 39 38 39 39 39 39 39 39 39 40 40 39 38 37 36 36 35 35 35 35 35 34 34 33 33 32 32 31 31 31 30 30 30 30 29 29 29 29 29 29 29 30 30 31 31 32 33 34 35 36 36 36 35 33 31 29 26 24 22 18 16 14 12 10 9 8 8 9 11 13 15 17 18 19 20 20 18 17 14 11 10 10 12 15 18 20 22 24
42 42 42 42 42 42 42 42 42 42 42 41 40 39 38 38 39 39 40 40 40 40 39 40 40 40 40 39 38 37 37 37 37 37 37 37 36 36 35 35 34 34 34 34 33 33 33 33 32 32 32 31 31 31 31 30 30 30 30 30 30 31 31 33 34 35 35 35 34 32 30 28 26 24 21 18 16 14 11 10 8 8 9 11 13 15 17 18 19 21 22 21 19 17 14 11 10 11 13 15 15 15 16
41 41 41 40 40 40 39 39 40 40 39 39 38 38 38 39 40 40 40 40 40 40 41 41 40 40 40 40 39 39 39 39 39 39 40 39 38 38 37 37 37 37 37 37 37 36 36 36 36 35 35 35 35 34 34 34 33 32 32 31 31 31 30 31 31 32 33 34 34 33 31 29 28 26 23 21 18 16 13 11 10 9 9 11 13 15 16 18 20 22 24 24 22 20 17 14 11 10 9 10 10 11 12
39 39 38 38 38 38 38 38 39 39 39 39 39 39 40 40 40 40 40 41 41 41 41 41 41 41 41 41 40 40 41 41 41 41 41 41 40 40 40 40 40 40 40 40 40 39 39 39 38 38 38 38 37 37 37 36 36 35 35 35 34 33 33 32 32 32 32 33 33 33 32 31 29 27 26 24 21 19 16 13 11 9 9 11 13 15 16 18 20 22 25 25 24 23 20 17 13 10 8 8 8 9 11
38 38 38 38 38 38 38 39 39 39 39 39 40 40 40 41 41 41 41 41 41 41 42 42 42 42 42 42 42 42 42 42 42 43 43 42 42 42 42 43 44 44 44 44 43 43 42 42 41 40 40 40 39 39 39 38 38 37 37 36 36 35 35 34 34 33 33 33 33 33 33 33 31 30 28 26 24 21 18 15 12 10 10 11 13 14 16 17 20 22 25 26 26 24 22 19 15 12 9 8 7 8 11
38 38 39 39 39 39 40 40 40 40 41 41 41 42 42 42 42 42 42 42 42 42 43 43 43 43 43 44 43 43 43 43 43 44 44 44 44 44 45 46 46 47 46 46 46 45 45 44 44 43 42 41 41 41 40 40 39 38 38 38 37 37 36 36 35 35 34 34 34 34 34 34 33 32 30 28 26 23 20 16 13 11 10 11 13 14 15 17 19 22 25 26 26 26 24 21 17 14 10 9 8 8 9
40 40 40 41 41 41 41 41 42 42 42 42 42 43 43 43 43 43 43 43 43 43 43 44 44 44 45 45 45 44 44 45 45 45 45 45 45 46 47 48 47 47 47 48 49 48 44 44 43 43 43 43 43 42 42 42 41 41 41 40 39 39 38 38 37 37 36 35 35 35 35 35 35 33 31 29 27 25 21 17 14 11 10 11 13 14 15 16 18 21 25 26 27 26 25 22 18 15 11 9 8 7 7
42 42 42 42 42 43 43 43 43 43 43 43 43 43 43 43 43 43 43 44 44 44 45 45 45 45 45 45 45 46 46 46 47 47 47 47 47 47 47 48 48 49 50 50 50 49 45 45 45 45 45 44 44 44 44 43 43 43 42 41 40 40 39 39 38 38 37 37 37 37 37 37 36 35 33 30 28 25 22 18 14 12 10 12 13 14 14 15 18 21 25 27 28 27 26 22 19 15 12 10 8 7 7
43 43 43 43 43 43 43 44 44 44 44 44 44 44 44 44 44 44 45 45 45 45 45 45 45 46 46 46 46 47 47 48 48 48 48 48 48 48 48 48 50 50 49 49 48 48 47 46 46 46 46 46 46 46 45 45 44 44 43 42 41 40 39 39 38 38 38 38 37 37 38 38 37 36 35 32 28 25 22 18 15 12 11 12 13 13 13 14 17 21 25 28 29 29 27 24 20 17 13 10 9 8 7
43 43 43 43 43 44 44 44 45 45 45 45 45 45 45 45 45 45 45 45 45 46 46 46 46 47 47 47 48 48 48 49 49 50 50 49 49 49 49 49 49 49 50 49 49 48 48 49 49 48 48 48 48 47 47 47 47 46 46 45 44 43 42 41 40 39 38 38 38 38 38 38 37 37 35 32 29 26 22 18 15 13 12 12 13 13 12 14 16 20 25 28 31 31 30 27 23 18 14 11 9 8 7
43 43 43 43 44 44 45 45 45 45 46 46 46 46 46 46 46 46 46 46 46 47 47 48 48 48 48 49 49 49 50 50 50 51 51 51 51 51 51 50 50 50 49 49 50 50 50 51 51 51 51 51 51 50 50 50 50 49 49 49 48 47 46 44 43 41 40 39 38 38 38 37 37 36 35 32 29 26 22 19 16 14 13 13 13 12 12 13 16 20 25 29 33 34 34 31 26 21 16 12 10 8 8
43 43 44 44 45 45 45 46 46 46 46 47 47 47 47 46 46 46 47 47 48 48 49 49 49 49 50 50 51 51 51 51 51 51 52 53 53 52 52 52 52 51 51 51 51 51 51 53 53 54 54 54 53 52 52 52 52 52 51 51 51 50 49 47 46 44 43 41 40 39 38 37 37 36 35 32 29 26 22 19 17 15 14 14 13 12 12 13 16 20 26 31 35 39 42 38 33 25 18 13 10 9 8
44 44 45 45 46 46 46 47 47 47 48 48 48 48 48 47 47 48 48 49 49 50 50 50 50 51 51 52 52 52 52 51 52 52 53 54 54 54 54 54 53 53 53 52 52 52 52 52 53 54 55 56 56 55 55 54 54 54 53 53 52 52 51 50 49 47 46 44 43 41 39 38 37 36 35 32 29 26 23 20 18 16 15 14 14 13 12 13 16 21 26 33 40 46 51 47 39 29 19 14 11 9 9
45 45 46 46 47 47 47 48 48 48 49 49 49 49 49 49 49 50 50 50 51 51 51 52 52 52 52 53 53 53 53 53 53 54 54 55 55 55 56 56 55 55 55 54 54 54 54 54 53 54 54 56 58 59 58 57 56 56 55 54 54 53 52 51 50 49 48 47 46 44 42 40 39 37 36 33 30 27 25 22 20 18 16 15 14 13 12 13 16 21 27 36 45 53 59 54 44 32 20 14 11 10 9
Wind_Speed
5 5 4 4 4 4 4 4 4 4 5 4 4 4 3 3 3 2 2 2 2 2 2 2 2 3 3 3 3 4 4 5 5 6 6 6 6 6 6 6 6 6 6 6 6 5 5 5 5 5 4 4 4 4 4 5 5 6 6 7 8 7 6 6 6 7 8 8 8 8 7 7 7 7 7 7 7 7 7 7 7 6 6 7 7 8 9 9 10 10 10 10 10 10 10 10 10 10 10 10 10 10 10
5 5 4 4 4 4 4 4 4 4 4 4 4 4 3 3 2 2 2 1 1 1 2 2 2 2 2 3 3 3 4 4 5 5 6 6 6 6 6 6 6 6 6 6 6 6 6 6 6 5 5 5 5 4 4 5 5 5 6 6 7 7 5 4 5 6 6 7 8 8 8 7 7 7 7 7 7 7 7 7 7 6 6 6 6 7 7 8 9 9 9 9 9 9 9 10 10 10 10 10 10 10 10
5 5 5 5 5 4 4 4 4 4 4 4 4 4 3 3 2 2 1 1 1 1 1 1 1 2 2 2 3 3 4 5 5 6 6 6 6 7 7 7 7 7 7 7 7 7 7 6 6 6 6 5 5 5 5 5 5 6 6 6 6 6 5 4 4 5 5 6 7 7 8 7 7 7 7 6 6 6 6 6 6 6 6 6 6 6 6 7 7 8 9 9 9 9 9 9 10 10 10 10 10 10 10
6 5 5 5 5 5 5 4 4 4 4 4 4 3 3 3 2 2 1 1 1 0 0 1 1 1 2 2 3 3 4 5 5 6 6 6 6 6 7 7 7 7 7 7 7 7 7 7 7 7 7 7 6 6 6 6 6 7 7 7 7 6 5 5 5 5 4 4 5 6 7 7 7 7 6 6 6 6 6 6 6 6 6 6 6 6 6 6 6 6 7 8 8 9 9 9 9 10 10 10 10 10 10
6 5 5 5 5 5 5 5 5 4 4 4 3 3 3 3 3 2 2 1 1 1 0 0 1 1 2 2 3 3 4 5 5 6 6 6 6 6 6 7 7 7 7 7 7 7 8 7 8 7 7 8 8 8 8 8 8 8 8 8 8 7 6 6 6 6 6 5 5 5 5 6 7 7 6 6 5 5 5 5 5 6 6 6 6 6 6 6 6 6 6 6 7 8 8 8 9 9 10 10 10 10 10
5 5 5 5 5 5 5 5 5 5 4 4 4 3 3 3 3 2 2 2 2 1 1 1 1 1 2 2 2 3 4 4 5 6 6 7 7 6 6 7 7 7 7 8 8 8 8 8 8 8 8 8 8 9 9 9 9 9 9 9 9 8 7 7 7 7 7 7 6 5 4 5 6 6 6 5 5 5 5 5 5 5 5 5 5 5 5 5 6 6 6 6 6 7 7 8 8 9 9 10 10 10 10
5 5 5 5 5 5 5 5 5 5 5 5 4 4 3 3 3 3 3 2 2 2 2 2 2 2 2 2 2 3 3 4 4 5 6 6 7 7 7 6 6 7 7 7 8 8 8 8 8 8 8 9 9 9 9 9 9 9 10 10 10 9 8 8 7 7 7 7 7 6 5 5 5 5 5 5 5 4 4 4 5 5 5 5 5 5 5 5 5 5 6 6 6 6 7 7 7 8 9 9 9 10 10
5 5 5 5 5 5 6 6 6 6 6 5 5 4 4 4 4 4 3 3 3 3 2 2 2 2 2 2 2 3 3 4 4 5 5 6 6 7 7 6 6 6 7 7 7 8 8 8 8 8 8 9 9 9 9 10 10 10 10 10 10 10 9 9 8 8 7 7 8 8 7 6 5 5 5 5 4 4 3 4 4 4 4 4 4 4 4 5 5 5 5 6 6 7 7 7 7 7 8 8 9 9 9
5 5 5 5 5 5 6 6 6 6 6 6 5 5 5 5 4 4 4 4 3 3 3 3 3 2 2 2 3 3 3 3 4 4 5 5 6 6 6 6 6 6 7 7 7 7 7 8 8 8 8 8 9 9 9 9 9 10 10 10 10 10 9 9 9 9 8 8 8 8 8 7 6 5 5 5 5 4 3 3 4 4 4 4 4 4 4 4 4 4 4 5 6 6 7 7 7 7 7 8 8 8 9
5 5 5 5 5 6 6 6 7 7 7 7 6 6 6 5 5 5 5 4 4 4 3 3 3 3 3 3 3 3 3 3 4 4 4 5 5 6 6 6 6 6 6 7 7 7 7 7 7 8 8 8 8 8 9 9 9 9 9 10 10 10 10 10 9 9 9 8 8 8 8 8 7 7 6 6 6 5 4 4 4 4 4 5 5 4 3 3 4 4 4 4 5 5 6 7 7 7 7 7 8 8 8
5 5 5 5 6 6 7 7 7 7 8 7 7 7 6 6 6 6 5 5 5 4 4 4 4 3 3 3 3 3 4 4 4 4 4 5 5 6 6 6 6 6 6 6 7 7 7 7 7 7 7 7 8 8 8 8 8 9 9 9 9 10 10 10 10 10 9 9 9 8 8 8 7 7 7 7 6 6 5 5 4 4 5 5 5 5 4 3 3 4 3 4 4 5 5 6 6 7 7 7 8 8 8
6 5 6 6 6 6 7 7 8 8 8 8 8 8 7 7 7 6 6 6 5 5 5 4 4 4 4 4 4 4 4 4 4 5 5 5 5 5 6 6 6 6 6 6 7 7 7 7 7 7 7 7 7 7 8 8 8 8 8 9 9 9 9 10 10 10 10 10 9 9 9 8 7 7 7 7 7 7 6 6 5 5 5 5 5 5 4 4 4 4 3 3 3 4 5 5 6 6 6 7 7 7 8
6 6 6 6 6 7 7 8 8 9 9 9 9 9 9 8 8 7 7 7 6 6 5 5 5 5 5 5 5 5 5 5 5 5 5 5 5 6 6 6 6 6 7 7 7 7 7 7 7 7 7 7 7 7 7 7 8 8 8 8 8 8 9 9 10 10 10 10 10 9 9 9 8 7 7 7 7 7 7 6 6 6 6 5 6 5 5 4 4 4 4 3 3 4 4 5 5 6 6 6 6 7 7
7 7 7 7 7 7 7 8 8 9 9 10 10 10 10 9 9 8 8 7 7 6 6 6 6 5 5 5 5 5 5 6 6 6 6 6 6 6 6 6 6 7 7 7 7 7 7 7 7 7 7 7 7 7 7 7 7 8 8 8 8 8 8 8 9 9 10 10 10 10 9 9 9 8 7 7 7 7 7 7 6 6 6 6 6 6 5 5 4 4 4 4 4 4 4 5 5 6 6 6 6 6 7
7 7 7 7 7 7 8 8 9 9 10 10 11 11 11 11 10 10 9 8 8 7 7 7 6 6 6 6 6 6 6 6 6 6 7 7 7 7 7 7 7 7 7 7 7 7 7 7 7 7 7 7 7 7 7 7 7 7 8 8 8 8 8 8 8 9 9 9 9 9 9 9 9 9 8 8 7 7 7 7 7 6 6 6 6 6 6 5 5 5 5 5 4 4 4 5 5 6 6 6 6 6 6
8 8 8 8 8 8 8 9 9 10 10 11 11 12 12 12 11 11 10 9 9 8 8 7 7 7 7 7 7 7 7 7 7 7 7 7 7 7 7 7 7 7 7 7 7 8 8 8 8 8 8 8 8 8 8 8 8 8 8 8 8 8 8 8 8 8 9 9 9 9 9 9 9 9 9 8 8 8 7 7 7 7 7 7 6 6 6 6 5 5 5 5 5 5 5 5 6 7 7 7 7 7 6
10 9 9 9 8 8 9 9 10 10 11 11 12 12 12 13 13 12 12 11 10 9 9 8 8 8 8 8 8 8 8 8 8 8 8 8 8 8 8 8 8 8 8 8 8 8 8 8 8 8 8 8 8 8 8 8 8 8 8 8 8 8 8 8 8 8 8 9 9 9 9 9 9 9 9 8 8 8 8 8 7 7 7 7 7 7 6 6 6 5 5 5 5 5 5 6 6 7 8 8 8 7 7
11 10 10 10 9 9 9 10 10 11 11 12 12 12 13 13 13 13 13 12 11 10 10 9 9 9 9 9 9 9 9 9 9 9 9 9 9 9 9 9 9 9 9 9 9 9 9 9 9 9 9 9 9 9 9 8 8 8 8 8 8 8 8 9 9 9 9 9 8 9 9 9 8 8 8 8 8 8 8 8 8 8 7 7 7 7 7 7 7 6 6 6 5 5 5 6 7 7 8 8 8 8 8
12 12 11 11 10 10 10 10 11 11 12 12 12 13 13 14 14 14 14 13 13 12 11 11 10 10 10 10 10 10 10 10 10 10 10 10 10 10 10 10 10 10 9 9 9 9 10 10 10 10 10 9 9 9 9 9 9 9 9 9 9 9 9 9 9 9 9 9 9 9 9 9 9 8 8 9 9 9 8 8 8 8 8 8 8 8 8 8 8 7 7 7 6 6 6 6 7 7 8 9 9 9 9
13 13 13 12 12 11 11 11 11 12 12 13 13 13 14 14 14 15 15 14 14 13 13 12 12 11 11 10 10 11 11 11 11 11 11 11 11 11 11 11 11 10 10 10 10 10 10 10 10 10 10 10 10 10 10 10 10 10 9 9 9 9 9 9 9 9 9 9 9 9 9 9 9 9 9 9 9 9 9 9 9 8 8 8 8 8 8 9 9 9 8 8 7 6 6 6 7 7 8 9 10 10 10
15 14 14 13 13 12 12 12 12 12 13 13 14 14 14 14 15 15 15 15 15 15 14 14 13 12 11 11 11 12 12 12 12 12 12 12 12 12 12 12 12 11 11 11 11 11 11 11 11 11 11 11 11 11 11 11 10 10 10 10 10 10 10 10 10 10 10 10 10 10 10 10 9 9 9 9 9 9 9 9 9 9 8 8 8 8 8 9 9 10 9 9 8 7 7 7 7 7 8 9 10 11 11
16 15 15 15 14 14 13 13 13 13 13 14 14 15 14 14 15 16 16 16 16 15 15 15 14 13 13 12 12 13 13 13 13 13 13 13 13 13 13 13 13 13 12 12 12 12 12 12 12 12 12 12 12 12 12 11 11 11 11 11 11 11 11 11 10 11 10 10 10 10 10 10 10 10 10 10 10 10 10 10 10 9 9 9 8 8 8 9 10 10 10 10 9 8 8 8 8 8 7 9 10 11 11
16 16 16 16 15 15 15 14 14 14 14 14 15 15 15 15 15 16 17 17 17 16 16 16 16 15 14 14 14 14 14 14 14 14 14 14 14 14 14 14 14 14 13 13 13 13 13 13 13 13 13 13 13 13 13 12 12 12 12 12 12 12 11 11 11 11 11 11 11 11 11 11 11 11 11 11 11 11 10 10 10 10 10 9 9 9 9 9 10 10 10 10 10 8 8 8 8 8 8 8 10 11 11
17 17 17 17 16 16 16 16 15 15 15 15 16 16 15 15 16 16 17 17 17 17 17 17 17 16 16 15 15 15 15 15 15 16 16 16 16 15 15 15 15 15 15 15 14 14 14 14 14 14 14 14 14 14 14 13 13 13 13 13 13 13 12 12 12 12 12 12 12 12 11 11 11 11 11 11 11 11 11 11 11 11 10 10 10 10 10 10 10 10 10 11 10 9 8 8 8 8 8 8 10 11 12
18 18 18 17 17 17 17 17 17 16 16 16 17 16 16 16 16 17 18 18 18 18 18 18 18 18 17 17 16 16 17 17 17 17 17 17 17 17 16 16 16 16 16 16 16 16 15 15 15 15 15 15 15 15 15 14 14 14 14 14 14 14 13 13 13 13 13 13 12 12 12 12 12 12 12 12 12 12 12 12 12 12 11 11 10 10 10 11 10 10 10 11 11 10 9 9 9 8 8 8 10 11 12
20 19 19 18 18 18 18 18 18 18 18 18 18 17 17 17 17 17 18 18 19 19 19 19 19 19 18 18 18 17 18 18 18 18 18 18 18 18 18 17 17 17 17 17 17 17 16 16 16 16 16 16 16 16 16 15 15 15 15 15 15 14 14 14 14 14 13 13 13 13 13 12 12 12 12 12 13 12 12 12 12 12 12 12 11 11 11 11 11 11 11 11 11 11 9 9 9 8 8 8 9 11 12
21 21 20 19 19 19 19 19 19 19 19 19 19 19 18 18 18 18 18 19 19 19 19 19 19 19 19 19 19 19 19 19 19 19 19 19 19 19 19 19 18 18 18 18 18 18 18 17 17 17 17 17 17 17 17 17 16 16 16 16 16 15 15 15 15 14 14 14 14 14 14 13 13 13 13 13 13 13 13 13 13 13 13 13 12 12 12 12 12 11 11 11 12 11 10 9 9 9 8 8 9 10 12
23 22 21 21 20 20 20 20 20 20 20 20 20 20 20 19 19 19 19 19 20 20 20 20 20 20 20 20 20 20 20 20 20 20 21 21 21 20 20 20 20 19 19 19 19 19 19 19 19 18 18 18 18 18 18 18 17 17 17 17 16 16 16 16 16 15 15 15 15 15 15 14 14 14 13 13 13 13 14 13 13 13 13 14 14 13 13 13 12 12 11 12 12 12 11 10 10 9 9 9 9 10 11
24 23 23 22 22 22 21 21 21 21 21 21 21 21 21 21 20 20 20 20 20 21 21 21 20 20 21 21 21 21 20 21 21 22 22 22 22 22 21 21 21 21 21 20 20 20 20 20 20 20 19 19 19 19 19 19 19 18 18 18 17 17 17 17 16 16 16 16 16 15 15 15 15 15 14 14 14 14 14 14 14 14 14 14 14 14 14 14 13 12 12 12 13 13 12 12 11 10 10 10 11 11 11
26 25 24 24 23 23 23 22 22 22 22 22 22 23 22 22 22 22 21 21 21 21 21 21 21 21 21 22 22 21 21 21 22 23 23 23 23 23 23 23 22 22 22 22 21 21 21 21 21 21 21 21 21 20 20 20 20 20 19 19 18 18 18 17 17 17 17 16 16 16 16 16 16 16 15 15 15 15 15 15 15 15 15 15 15 15 15 15 14 13 12 12 13 13 13 13 12 11 11 11 12 12 12
27 26 26 26 25 25 24 24 23 23 23 23 24 24 23 23 23 23 23 23 22 22 22 22 22 22 22 23 23 22 22 23 23 24 24 24 24 24 24 24 24 23 23 23 23 23 22 22 22 22 22 22 22 22 21 21 21 21 21 20 20 19 19 18 18 18 18 17 17 17 17 17 17 17 16 16 16 16 16 16 16 16 16 16 16 16 16 16 15 14 13 13 13 13 14 14 13 12 12 12 12 13 12
28 28 28 28 27 27 26 26 25 25 24 24 25 25 25 24 24 24 24 24 24 24 24 24 24 24 24 24 24 24 24 24 24 24 24 25 25 25 25 25 25 25 24 24 24 24 24 24 23 23 23 23 23 23 23 22 22 22 22 21 21 20 20 20 19 19 19 18 18 18 17 17 17 17 17 17 17 17 16 16 17 17 17 17 17 16 16 16 16 15 15 14 14 14 15 14 14 14 13 13 13 13 13
29 30 30 29 29 28 28 27 27 26 26 26 26 26 26 26 26 26 26 25 25 25 25 25 25 25 26 26 26 26 26 26 26 26 25 25 25 25 26 26 26 26 26 26 26 26 25 25 25 24 24 24 24 24 24 24 23 23 23 23 22 22 21 21 20 20 20 19 19 19 18 18 18 18 18 18 18 17 17 17 17 18 18 18 18 17 17 17 16 16 16 15 15 15 15 15 15 15 15 15 15 14 14
30 30 31 31 30 30 30 29 28 27 27 27 27 27 27 27 27 27 27 27 27 27 27 27 27 27 27 28 28 28 28 27 27 27 27 26 26 26 26 26 27 27 27 27 27 27 27 27 26 26 26 25 25 25 25 25 25 24 24 24 23 23 22 22 22 21 21 20 20 20 20 19 19 19 19 19 19 18 18 18 18 18 18 19 19 19 18 18 17 17 17 16 16 16 16 16 16 16 16 16 16 15 14
30 30 31 31 31 31 31 30 29 29 28 28 28 28 28 28 28 28 28 29 29 28 28 28 28 29 29 29 30 30 30 29 29 29 29 28 27 27 27 27 27 27 28 28 28 28 28 28 28 28 27 27 26 26 26 26 26 26 25 25 25 24 24 23 23 22 22 22 21 21 21 21 20 20 20 20 20 20 19 19 19 19 19 19 19 19 19 19 18 18 18 17 17 17 17 17 17 17 17 17 16 16 15
30 31 31 32 32 32 32 31 30 30 29 29 29 29 29 29 30 30 30 30 30 30 30 30 30 30 31 31 32 32 32 31 31 31 31 30 29 28 28 28 28 28 29 29 29 29 29 30 29 29 29 28 28 28 27 27 27 27 27 27 26 26 25 25 24 24 23 23 23 22 22 22 22 21 21 21 21 21 21 20 20 20 20 20 20 20 20 20 19 19 19 19 18 18 18 18 17 17 17 17 17 17 16
31 31 32 32 32 32 32 32 31 30 30 30 30 30 30 31 31 31 31 32 32 31 31 31 31 32 32 33 34 34 34 33 33 34 33 32 31 31 30 30 29 29 30 30 30 30 30 31 31 31 30 30 29 29 29 29 29 29 28 28 28 27 27 26 26 25 25 24 24 24 24 23 23 23 22 22 22 22 22 22 21 21 21 21 21 21 21 21 21 20 20 20 20 19 19 19 19 18 18 18 17 17 17
32 33 33 33 33 33 33 32 31 31 31 31 31 31 31 32 32 32 33 33 33 33 33 33 33 33 34 35 35 36 35 35 36 36 35 35 34 33 33 32 31 31 31 31 31 31 32 32 32 32 32 31 31 31 30 30 30 30 30 30 29 29 29 28 27 26 26 26 25 25 25 25 24 24 24 23 23 23 23 23 23 22 22 22 21 21 21 21 22 22 21 21 21 20 20 20 20 19 19 18 18 18 18
34 34 34 34 34 34 33 33 32 32 32 32 32 32 33 33 33 34 34 34 35 34 34 35 35 35 36 36 37 37 37 38 38 38 38 37 37 36 35 34 33 33 33 33 33 33 34 34 33 33 33 33 32 32 32 32 32 32 31 31 31 31 30 29 29 28 28 27 27 26 26 26 26 25 25 25 24 24 24 24 24 24 23 23 23 22 22 22 22 22 22 22 22 21 21 21 21 20 20 19 19 19 19
35 35 36 36 36 35 34 34 34 34 34 34 34 34 34 35 35 36 36 36 36 36 36 36 37 37 38 38 39 39 39 40 40 40 40 40 39 39 38 37 36 36 35 35 35 35 35 35 35 35 35 34 34 34 34 34 33 33 33 33 33 32 32 31 30 30 29 29 28 28 27 27 27 27 26 26 26 25 25 25 25 25 25 24 24 23 23 23 23 23 23 23 23 23 22 22 21 21 21 20 20 19 19
37 37 37 37 37 36 36 36 36 36 36 36 36 36 37 37 37 38 38 38 38 38 38 38 39 40 40 40 40 41 41 41 42 42 42 42 42 41 40 40 39 39 38 37 37 37 37 37 37 37 36 36 36 36 36 36 35 35 35 34 34 34 33 32 32 31 31 30 30 29 29 28 28 28 28 27 27 27 26 26 26 26 26 26 25 25 24 24 23 23 24 24 24 23 23 22 22 22 21 21 20 20 20
38 38 38 38 38 38 38 38 38 38 38 38 38 38 39 39 39 39 39 40 40 40 40 41 41 41 42 42 42 43 43 43 43 44 44 44 44 43 43 43 42 42 41 40 40 40 40 39 39 39 38 38 38 38 38 38 37 37 36 36 36 35 34 34 33 33 32 32 31 31 30 30 29 29 29 29 28 28 28 27 27 27 27 27 26 26 25 25 24 24 24 24 24 24 24 23 22 22 22 21 21 20 20
40 40 40 40 40 40 39 39 39 39 40 40 40 40 40 41 41 41 41 41 42 42 42 42 42 43 43 43 44 44 44 44 45 45 45 45 45 45 45 45 45 44 44 43 43 43 42 41 41 41 40 40 41 41 41 40 39 39 38 38 37 37 36 35 35 34 34 34 33 32 31 31 30 30 30 30 29 29 29 29 28 28 28 28 27 27 26 26 25 25 25 25 25 25 25 24 23 22 22 22 21 21 20
42 42 42 42 41 41 41 41 41 41 41 41 41 42 42 42 42 42 43 43 43 44 44 44 44 44 44 45 45 45 45 45 45 45 45 46 46 47 47 47 47 47 46 46 46 45 45 44 43 43 43 43 43 43 43 42 42 41 40 40 39 39 38 37 36 36 35 35 35 34 33 32 32 31 31 31 31 30 30 30 29 29 29 29 28 28 27 26 26 26 25 25 25 25 25 25 24 23 23 22 22 21 21
43 43 43 43 43 43 43 42 42 43 43 43 43 43 43 43 43 44 44 44 44 45 45 45 45 45 45 46 46 45 45 45 45 45 46 46 47 47 48 48 48 48 48 48 48 48 47 47 46 46 46 46 46 46 46 45 44 44 43 42 42 41 40 39 38 37 37 36 36 35 35 34 33 32 32 32 32 32 31 30 30 30 30 30 29 28 28 27 27 27 26 26 26 25 25 25 25 24 24 23 22 21 21
44 44 44 44 44 44 44 43 44 44 44 44 44 44 44 44 44 44 45 45 45 45 46 45 46 46 46 46 46 46 46 45 45 45 46 46 47 47 48 48 48 49 49 49 49 49 49 49 49 49 49 49 49 48 48 48 47 46 45 45 44 43 42 41 40 39 38 38 38 37 36 35 35 34 33 33 33 33 32 31 31 31 31 31 30 29 29 28 28 27 27 27 26 26 26 26 25 25 24 24 23 22 22
45 45 45 45 44 45 45 45 45 45 45 45 45 45 45 45 45 45 45 45 46 46 46 46 46 46 47 47 47 46 46 45 45 45 46 46 47 47 48 48 48 49 49 49 49 49 49 50 50 50 50 50 51 50 50 50 49 49 48 47 46 45 44 43 42 41 40 39 39 38 38 37 36 35 35 34 34 33 33 32 32 32 32 31 31 30 29 29 28 28 27 27 27 26 26 26 25 25 25 24 24 23 23
45 45 45 45 45 45 46 46 46 46 46 45 46 46 46 45 45 45 45 46 46 46 46 46 46 47 47 47 47 46 46 45 45 45 45 46 47 47 48 48 48 48 48 48 49 49 49 50 51 51 51 51 52 52 52 52 51 51 51 50 49 48 47 45 44 43 41 41 40 40 39 39 38 37 36 36 35 34 34 33 33 33 33 32 32 31 30 29 29 28 28 27 27 27 26 26 26 25 25 25 25 24 24
45 45 45 45 45 45 45 45 45 45 45 45 46 45 45 45 45 45 45 45 45 46 45 46 46 47 47 47 47 46 45 45 45 44 45 45 47 47 47 47 48 48 48 48 49 49 49 50 50 51 51 51 51 52 52 52 52 52 52 52 51 51 50 48 47 45 44 43 42 42 41 40 40 39 38 37 36 35 35 34 34 34 33 33 33 32 31 30 29 29 28 28 27 27 27 27 26 26 26 26 26 26 25
44 44 44 44 44 44 44 44 44 44 45 44 44 44 44 44 44 44 44 44 44 45 45 46 46 46 46 47 46 45 45 44 44 43 44 44 45 46 47 47 47 48 48 48 48 48 48 48 48 49 49 49 48 49 49 49 49 50 50 51 51 51 51 50 49 48 46 46 45 44 43 42 42 41 40 39 37 37 36 35 35 34 34 34 33 32 32 31 30 29 28 28 28 27 27 27 27 27 27 26 26 26 26
43 43 43 43 43 43 42 42 43 43 43 43 43 43 43 43 43 43 43 44 44 44 44 45 45 45 45 46 45 45 44 44 43 43 42 44 44 44 44 45 46 47 48 47 46 45 45 45 45 45 45 44 44 44 44 44 44 44 44 45 45 46 46 47 47 47 47 47 47 46 45 45 44 43 41 40 39 38 37 36 35 35 35 34 34 33 32 32 31 30 29 28 28 28 28 28 27 27 27 26 26 26 26
41 40 40 40 41 40 40 40 41 41 41 42 42 42 41 41 42 42 42 42 42 42 43 44 44 44 44 45 45 44 44 43 43 42 42 42 42 42 41 40 40 40 39 40 41 42 41 42 43 43 41 39 38 37 36 36 36 36 36 36 37 37 37 38 40 41 43 45 46 46 46 46 45 44 43 42 41 39 38 37 36 36 35 35 34 34 33 32 31 30 29 28 28 28 28 28 28 27 27 27 27 26 26
38 37 37 37 38 38 38 38 39 38 38 40 41 40 40 40 40 40 39 40 40 41 41 41 42 43 44 44 44 44 43 43 42 42 40 40 40 40 38 36 35 35 36 35 37 40 40 36 35 35 33 31 30 30 30 31 31 32 32 32 32 32 32 32 33 35 38 40 42 43 44 45 45 45 44 43 42 41 39 38 37 36 36 35 35 34 34 33 31 30 29 29 28 28 28 28 28 27 27 27 27 27 27
34 34 34 34 35 35 35 36 36 36 36 37 38 38 38 38 38 38 37 38 38 39 40 40 40 42 44 44 44 44 43 42 42 42 42 40 38 36 34 34 35 36 34 30 27 28 33 30 26 27 30 29 28 29 30 30 30 30 30 29 29 29 29 29 30 31 34 36 37 38 40 41 42 43 43 43 43 41 40 38 37 37 36 36 36 35 34 33 32 31 30 29 28 28 28 28 27 27 27 27 27 27 27
31 31 32 32 32 32 33 33 33 34 34 34 35 36 36 36 36 36 36 37 37 38 39 40 40 40 42 42 42 42 42 42 42 42 42 41 39 37 35 34 33 31 28 26 22 22 27 28 28 30 33 32 30 29 29 28 27 27 26 26 26 26 26 26 27 29 31 32 33 34 36 37 39 40 42 42 42 41 40 38 38 37 37 36 36 35 35 34 32 31 30 29 28 28 27 27 27 27 27 27 27 27 27
29 29 29 30 30 30 30 31 32 32 33 33 34 34 34 34 34 35 35 36 36 37 38 39 39 40 40 41 41 42 42 41 41 41 42 42 41 40 38 35 30 24 21 21 22 24 25 25 28 31 34 32 28 26 28 27 26 26 26 26 26 25 25 25 26 27 29 30 31 32 33 34 35 37 39 40 41 41 39 38 38 37 37 37 37 36 35 34 33 32 30 29 28 28 27 27 27 27 27 28 27 27 27
28 28 28 28 28 29 29 30 31 31 32 32 33 33 33 34 34 35 35 36 36 36 36 38 39 40 39 40 41 42 42 43 42 42 42 43 43 42 42 40 39 35 29 26 26 27 28 27 26 26 30 32 30 28 30 31 31 31 31 31 31 30 29 28 28 27 28 28 29 30 31 32 33 35 36 38 39 39 38 38 37 37 37 37 37 37 36 35 33 32 31 29 28 27 27 27 27 27 27 28 27 27 27
26 27 27 27 28 28 29 29 30 31 31 32 33 33 34 34 34 35 35 35 36 36 36 38 39 40 40 40 40 41 43 43 43 42 41 41 42 43 44 44 43 42 42 41 38 37 37 34 30 28 30 33 35 35 33 33 34 34 34 33 32 32 31 31 30 29 28 28 28 29 29 30 32 33 34 35 36 37 37 37 37 37 37 37 37 37 36 35 34 32 31 29 28 27 26 26 27 27 27 28 27 27 27
26 27 27 28 28 28 29 29 30 31 32 32 33 34 34 35 35 35 35 35 36 36 37 38 39 39 40 40 41 42 43 43 42 41 40 40 42 43 43 43 43 43 43 44 43 42 39 35 33 32 30 30 33 35 33 31 31 32 32 32 31 31 31 32 32 31 30 30 29 29 29 30 30 31 32 33 34 35 36 36 36 37 37 38 38 37 37 36 34 33 31 29 28 26 26 26 26 27 27 28 27 27 27
26 27 28 28 29 29 29 30 30 31 32 32 33 34 35 35 35 35 36 36 36 37 38 39 39 39 40 41 42 42 43 43 42 41 40 40 41 42 42 41 42 42 43 43 43 42 42 42 41 37 32 30 31 34 35 34 32 31 32 32 33 32 33 33 34 34 33 32 31 31 30 30 31 31 32 33 33 34 35 35 36 37 37 38 38 38 37 36 35 33 31 29 27 26 26 26 27 27 27 28 27 27 27
27 28 29 29 29 29 30 31 31 32 32 33 34 35 36 36 36 36 37 37 37 38 38 39 40 40 41 42 42 43 43 43 43 42 41 41 41 41 40 39 40 41 42 42 42 42 42 43 43 42 40 37 34 34 36 38 37 34 33 34 35 35 36 37 37 37 36 35 35 33 33 32 32 32 33 33 34 34 34 35 36 37 38 38 38 38 37 36 35 33 31 29 27 26 26 26 27 27 28 28 27 27 27
Wind_Direction
220 229 238 244 247 244 238 230 220 208 198 190 183 179 175 171 163 154 143 131 117 100 87 78 68 59 52 45 38 32 24 20 20 24 29 33 35 38 41 41 39 37 37 38 38 39 39 41 40 39 36 32 26 21 15 9 3 359 357 353 347 346 3 33 39 31 23 18 16 17 20 25 29 30 31 32 36 39 45 50 53 55 58 60 59 58 56 54 52 51 49 45 41 38 35 32 31 29 28 27 27 27 28
231 243 254 258 258 254 247 240 233 222 209 198 190 185 181 177 172 163 152 140 121 100 84 69 58 49 43 36 30 26 20 16 15 17 23 27 27 27 29 31 31 30 29 29 29 29 29 30 29 28 27 26 23 19 14 10 5 2 358 354 346 344 355 18 32 33 29 21 16 13 13 16 21 25 27 28 30 34 39 43 44 44 47 53 56 57 57 56 55 53 51 47 43 39 35 32 30 28 26 25 25 24 25
245 256 264 267 267 264 260 253 244 236 223 209 199 193 189 186 182 178 170 155 136 108 80 57 46 36 30 26 20 16 14 11 10 11 16 21 23 22 20 21 23 23 22 21 21 20 21 20 19 18 17 16 16 14 11 8 5 2 359 355 347 343 354 6 16 23 28 26 20 15 12 12 14 19 22 24 27 30 33 37 39 38 37 41 47 51 51 53 54 55 53 49 45 42 38 34 31 28 26 24 23 23 24
254 260 266 270 272 273 271 266 259 250 239 226 214 206 200 198 197 195 192 185 179 146 61 41 27 18 14 12 11 10 9 6 4 5 7 13 18 20 17 15 15 16 16 15 15 15 15 13 11 10 9 8 8 7 6 4 2 0 358 356 349 348 358 3 5 7 11 17 22 21 17 13 11 13 17 20 23 27 29 33 35 34 32 33 36 41 44 44 46 51 53 51 47 43 40 37 34 31 27 25 23 22 23
256 261 265 270 273 277 278 277 272 264 256 243 233 222 216 212 212 213 214 217 223 238 266 304 336 347 353 359 1 4 4 3 1 359 360 2 8 14 16 13 10 9 10 10 10 10 10 8 6 5 3 3 3 2 2 0 359 358 356 355 353 353 358 1 3 4 2 2 8 17 22 19 15 11 12 14 19 24 27 29 31 31 28 27 27 30 34 35 36 39 44 46 45 43 41 38 37 34 31 27 24 22 22
255 260 265 270 274 278 282 282 279 273 267 259 250 241 231 227 225 227 229 233 241 250 261 279 296 317 335 346 351 356 357 357 357 355 354 355 358 4 10 10 8 5 4 4 5 5 5 4 2 0 0 359 359 358 357 357 356 356 355 353 353 354 355 356 0 4 4 0 359 3 14 21 19 13 9 10 16 24 28 28 27 26 25 22 20 19 23 26 28 30 33 35 35 36 35 35 35 35 33 30 27 24 23
255 261 267 271 275 280 282 284 282 279 274 268 261 252 244 239 238 238 239 242 249 256 263 274 287 303 319 332 340 346 349 350 350 350 350 350 351 355 360 4 4 2 360 359 359 0 0 0 359 358 357 356 355 355 354 353 353 353 353 352 352 353 352 352 355 360 3 1 358 357 0 10 16 14 9 9 14 25 32 30 25 20 18 16 15 13 15 18 21 24 26 26 26 25 25 26 28 30 31 30 28 27 26
256 262 269 273 278 282 284 285 284 281 277 274 267 260 252 247 245 244 244 247 250 255 263 270 282 294 305 315 326 332 337 341 342 343 345 345 346 348 350 354 356 357 356 354 354 354 355 356 355 355 354 353 353 352 351 350 350 350 350 349 348 349 350 349 349 351 355 357 356 355 354 357 2 5 4 5 9 20 32 32 27 18 12 9 8 9 12 14 16 19 20 21 21 18 17 17 18 21 24 25 26 26 25
256 264 270 275 280 283 285 285 284 282 279 275 270 264 256 252 249 248 247 248 250 253 260 268 275 285 294 304 312 318 325 329 333 335 337 338 339 341 343 345 348 350 350 349 348 349 350 351 351 351 350 349 349 348 348 347 347 346 346 345 344 345 348 347 347 346 345 346 349 351 351 352 352 353 355 357 0 6 17 25 23 16 10 5 1 3 10 14 15 15 16 16 16 14 12 11 11 12 14 16 18 19 20
255 263 270 275 280 283 284 284 284 282 279 276 272 266 260 255 253 251 250 249 250 253 257 264 270 278 285 293 300 307 314 319 323 326 328 330 332 334 335 337 340 342 343 343 343 343 343 344 346 346 345 345 344 344 344 343 343 343 343 341 341 342 343 343 343 342 340 337 339 342 345 348 348 348 348 349 351 354 357 4 8 10 7 3 0 1 7 14 14 12 11 12 12 10 9 7 7 7 8 9 10 11 13
254 262 268 274 278 281 283 283 283 282 280 277 273 269 264 259 256 255 254 254 253 254 258 262 269 274 280 286 293 298 304 309 313 317 319 322 324 326 327 329 332 333 335 335 336 336 337 338 338 339 339 339 339 340 340 339 338 339 338 338 338 338 339 339 339 338 337 333 333 335 338 342 344 345 345 346 346 347 348 351 354 359 0 359 357 359 4 11 12 7 6 7 9 8 5 4 3 3 4 4 5 5 6
252 259 265 270 274 278 281 282 282 281 280 278 276 272 268 264 260 258 257 258 258 258 261 264 267 272 277 283 287 292 297 301 304 307 311 313 316 317 319 321 323 324 325 327 328 328 329 330 331 332 332 332 333 333 334 334 334 334 334 334 334 335 334 334 334 334 333 332 331 330 332 335 338 341 341 342 342 342 343 344 346 350 352 352 352 353 358 3 6 3 0 1 4 4 1 360 359 358 358 360 0 1 2
250 255 261 266 271 275 277 279 281 281 280 279 277 274 271 267 263 261 260 260 261 261 262 265 268 272 276 280 284 288 292 295 298 300 303 304 307 309 310 313 314 316 317 319 320 320 321 322 323 324 325 325 326 327 328 329 329 329 329 329 329 329 330 330 330 330 330 329 328 327 328 329 330 333 335 336 336 336 337 339 340 342 343 345 345 346 348 353 357 357 356 356 359 1 357 354 353 352 352 353 354 356 358
250 252 256 262 266 271 275 277 279 280 280 279 278 276 273 270 267 264 262 261 262 263 264 266 268 271 274 278 281 284 287 290 293 295 296 298 299 301 302 304 306 307 309 311 312 313 313 314 315 317 317 318 319 321 322 323 323 323 324 324 325 325 325 325 326 326 326 326 325 324 324 325 325 326 326 328 329 330 331 332 334 336 336 337 337 337 339 343 348 351 351 350 353 356 353 349 347 347 347 347 347 349 352
250 251 253 258 263 267 271 275 277 278 279 279 279 277 276 273 271 268 265 264 263 264 265 266 268 271 273 276 279 281 284 286 288 290 291 291 292 294 296 297 298 300 302 304 305 306 307 308 309 310 311 312 313 315 315 317 317 318 319 320 320 320 321 321 321 322 322 322 321 320 320 320 321 321 321 321 321 322 324 325 327 329 330 330 329 330 331 333 338 343 346 346 347 351 350 346 343 342 343 343 343 345 347
253 252 252 255 259 264 268 272 275 277 279 279 279 278 277 276 274 272 270 267 266 265 266 267 269 271 273 275 276 278 280 282 283 285 286 287 288 289 290 291 293 294 295 297 299 300 301 302 303 304 305 306 308 309 310 310 312 312 314 314 315 316 316 316 316 316 317 318 317 317 316 316 316 316 317 317 317 317 318 319 320 322 323 324 323 322 322 323 328 333 338 340 342 345 348 345 342 340 340 341 343 344 344
256 254 253 254 257 260 265 269 272 275 277 278 279 278 278 278 277 275 273 271 269 268 267 268 268 270 272 273 275 276 278 279 280 281 282 283 284 286 287 287 288 289 291 292 293 295 296 297 298 299 300 301 302 303 304 305 306 307 309 310 310 311 311 311 311 311 312 313 314 314 313 312 311 311 311 312 313 313 313 314 315 316 317 319 319 317 315 315 318 322 328 332 336 340 344 343 342 340 339 341 342 343 341
259 257 255 255 256 258 262 266 270 272 274 276 277 277 278 278 277 277 276 274 272 271 270 269 269 269 271 273 275 277 277 277 278 279 279 280 282 283 284 285 285 286 287 288 290 291 292 293 294 295 297 297 298 299 300 300 302 302 304 305 305 306 306 306 306 306 308 308 310 310 310 309 308 307 306 307 307 308 309 310 311 312 314 315 315 314 312 311 311 313 317 322 327 333 339 342 341 340 340 340 341 341 339
260 259 257 256 256 257 259 263 266 269 272 273 275 276 277 277 277 277 277 277 276 274 272 271 270 270 271 274 276 278 277 277 278 278 279 279 280 281 282 282 283 284 285 286 287 288 289 290 291 292 293 294 294 295 296 296 297 298 299 300 301 301 301 302 302 303 303 304 306 307 308 308 307 305 304 303 303 303 304 306 307 310 311 312 314 313 312 310 309 309 311 315 321 327 335 340 340 340 341 340 339 338 336
259 259 258 258 257 256 258 260 263 266 269 271 273 274 275 276 277 278 278 278 278 277 276 275 274 273 275 276 278 278 278 278 279 279 279 280 280 281 281 281 282 283 283 284 285 285 286 287 288 289 290 291 291 292 293 293 294 295 295 296 297 297 298 298 298 299 300 302 303 304 306 307 307 306 304 302 301 300 301 302 304 307 309 310 312 312 312 310 309 308 308 311 317 325 332 337 339 341 343 339 337 336 335
258 259 259 259 258 257 257 258 260 263 266 269 271 272 274 276 278 278 279 279 280 281 280 279 279 279 280 279 278 277 277 279 279 280 280 280 281 281 281 281 281 282 282 283 283 283 284 285 285 286 287 288 289 290 290 291 292 292 293 294 294 295 295 296 297 297 298 300 301 302 304 305 306 307 306 304 302 300 300 300 301 304 306 307 309 309 310 309 308 307 307 310 315 324 330 335 338 341 343 337 334 333 333
259 260 261 261 261 260 259 259 260 262 265 267 269 271 272 275 277 278 279 280 281 282 282 283 283 283 282 280 278 277 278 279 280 280 281 281 280 281 281 281 281 281 281 282 282 282 282 283 284 284 285 286 287 288 289 289 290 291 291 292 293 293 293 294 295 296 297 298 299 301 302 304 306 307 307 306 304 302 300 299 299 300 303 305 306 306 306 305 306 306 306 308 312 320 326 330 334 338 340 334 330 329 330
260 261 262 263 263 263 263 263 263 263 264 266 267 269 272 273 275 276 278 280 282 282 283 284 284 283 282 281 279 279 279 280 280 280 281 281 281 281 280 281 281 281 281 281 281 281 281 282 283 283 284 285 286 287 288 288 289 290 290 291 291 292 292 293 294 295 296 297 298 299 301 302 304 306 306 306 305 303 301 298 297 298 300 302 303 303 302 302 302 303 304 306 309 315 321 324 329 333 335 330 326 325 326
261 262 263 264 264 265 265 265 265 265 265 265 266 269 270 272 273 275 277 279 281 282 283 284 284 284 283 282 281 281 281 281 280 281 281 281 281 281 281 281 281 281 281 281 281 281 281 281 282 282 283 284 285 286 287 287 288 289 289 290 290 291 291 292 292 294 295 296 297 298 299 300 302 304 305 305 305 304 302 299 297 297 298 300 301 301 301 300 299 300 302 303 306 309 314 318 323 327 329 326 322 320 321
261 262 263 264 265 266 266 266 266 266 265 265 266 268 269 270 271 273 275 278 279 281 282 283 284 285 285 284 283 282 282 281 281 281 280 281 281 281 281 281 281 281 281 281 281 281 281 281 282 282 282 283 284 285 285 286 287 287 288 288 289 289 290 291 291 292 293 294 295 296 297 298 299 301 302 303 303 303 302 301 299 296 296 297 298 299 298 298 298 298 299 300 302 304 307 311 315 320 323 321 318 316 316
262 263 264 264 265 266 266 267 267 267 266 266 267 268 269 269 270 272 274 276 279 280 282 283 284 285 285 285 284 283 282 282 281 281 281 280 280 281 281 281 281 281 281 281 281 281 281 281 282 282 282 282 283 284 284 284 285 285 286 287 287 287 288 289 290 290 291 292 293 294 295 296 297 297 298 299 299 300 300 299 298 296 294 293 294 294 295 296 296 297 296 297 298 299 300 304 307 311 313 313 311 311 311
263 264 265 265 265 265 266 266 267 268 268 268 269 269 270 270 271 271 273 275 277 279 281 282 283 284 285 285 284 283 283 282 282 281 281 280 280 280 280 280 281 281 281 280 281 281 281 281 281 281 282 282 282 282 283 283 283 283 284 284 284 285 286 286 287 288 288 289 290 292 293 293 294 295 294 295 295 295 296 296 296 294 292 290 289 289 290 291 293 294 295 295 295 295 296 296 298 300 302 302 302 303 306
264 265 265 265 265 266 266 266 267 268 269 270 271 271 272 272 272 273 273 275 276 278 280 281 282 283 283 284 284 283 283 283 282 282 281 280 280 280 280 280 280 280 280 280 280 280 280 281 281 281 281 282 282 282 281 281 281 281 281 281 282 282 283 284 284 285 286 287 288 289 290 291 292 292 292 292 292 292 292 292 292 291 290 288 286 285 285 287 288 290 292 293 293 293 292 290 290 291 294 294 293 294 299
265 266 266 266 266 266 266 267 268 269 270 271 272 272 273 274 274 274 274 275 276 277 278 279 280 281 281 282 282 282 282 282 282 281 280 280 280 280 280 280 280 280 280 280 280 280 280 280 280 281 281 281 281 281 280 280 280 280 280 280 280 280 280 281 282 282 283 284 284 286 287 289 290 290 290 290 289 288 288 288 289 288 288 286 284 283 282 282 284 286 288 289 290 290 290 288 287 288 290 289 287 287 289
266 266 267 267 267 267 267 267 268 269 270 271 272 273 274 275 276 276 276 276 276 276 277 278 279 279 280 280 280 280 281 280 279 279 279 279 279 280 280 281 281 281 281 281 281 280 280 280 280 280 281 280 280 280 280 279 279 279 279 279 278 279 279 279 279 280 280 281 282 283 284 285 287 288 288 288 288 286 286 286 286 286 286 285 283 282 280 279 279 280 282 283 286 288 288 287 285 285 285 286 286 284 284
266 267 267 267 267 267 267 268 268 269 270 271 272 274 275 276 277 277 277 277 277 276 277 277 278 278 278 278 278 278 278 277 276 276 277 277 278 279 280 281 282 282 282 282 281 281 280 280 280 280 280 279 279 279 279 279 278 278 278 278 278 278 278 278 278 278 278 278 279 280 281 282 283 285 286 286 286 285 284 283 283 283 283 283 283 282 280 279 277 276 277 280 282 284 285 285 283 282 282 282 282 283 283
266 267 267 267 268 268 268 268 268 269 270 271 272 274 275 276 277 277 278 278 278 277 277 277 276 276 276 276 276 276 275 275 275 275 275 276 277 278 280 281 282 282 282 282 282 282 281 281 280 280 279 279 278 278 278 278 278 278 277 277 277 277 277 277 277 277 277 277 277 278 278 280 281 282 284 284 284 284 283 282 281 281 281 282 282 282 280 279 277 275 274 276 279 281 283 283 283 281 279 279 279 280 282
265 266 267 268 268 268 268 268 268 269 270 271 272 273 274 275 276 277 278 278 278 278 277 276 276 276 276 276 276 275 275 275 275 275 276 276 277 278 279 280 281 282 282 282 282 282 282 281 281 280 279 279 278 278 278 277 277 277 277 277 277 277 276 276 276 276 276 277 277 277 277 277 278 280 281 282 282 281 281 280 279 279 280 280 280 281 280 279 278 275 273 273 275 278 279 281 281 280 279 279 279 280 281
265 266 267 268 269 269 269 268 269 270 270 271 271 272 273 274 275 276 276 277 277 277 276 276 276 276 276 276 276 276 276 276 276 277 277 277 277 278 278 279 280 281 281 282 282 282 282 282 281 281 280 279 279 278 278 278 277 277 277 277 276 276 276 276 276 276 277 277 276 276 277 276 277 277 278 279 280 280 279 278 278 277 278 278 279 280 279 279 277 275 274 272 273 274 276 278 280 280 280 280 280 280 280
267 267 268 268 269 269 269 269 269 270 270 270 271 271 272 272 273 274 274 275 275 276 276 276 277 277 277 277 277 277 277 277 278 278 278 278 278 278 278 278 279 280 281 281 282 282 282 282 282 281 281 280 279 279 279 278 278 278 277 277 277 276 276 276 276 276 277 277 277 276 276 276 276 276 277 277 278 278 277 277 276 276 276 277 277 278 278 277 276 275 273 272 272 272 274 276 277 279 280 280 280 280 279
269 269 269 269 269 269 269 269 270 270 270 270 271 271 271 271 272 272 273 274 275 275 276 277 277 277 277 277 278 278 278 279 279 279 279 279 279 279 278 278 279 279 280 280 281 282 282 282 282 282 281 281 280 280 279 279 279 278 278 278 277 277 277 277 276 277 277 277 277 276 276 276 276 276 276 276 277 277 277 276 275 275 275 275 276 276 276 275 275 274 273 272 271 271 272 274 275 277 278 279 279 279 279
272 272 272 271 271 271 270 270 270 270 270 271 271 271 271 271 271 272 272 273 274 275 276 276 276 276 277 277 278 278 279 279 279 279 279 280 280 279 278 278 278 278 279 280 281 281 281 281 281 281 281 281 280 280 280 279 279 279 278 278 277 277 277 277 277 277 277 276 276 276 276 275 275 275 275 276 276 276 275 275 274 274 274 274 274 274 274 273 273 273 272 272 271 271 271 272 273 274 276 276 277 278 278
275 275 274 274 273 273 273 272 272 272 272 271 271 271 271 271 271 272 272 273 274 275 275 275 276 276 277 277 278 278 279 279 279 279 280 280 280 280 279 279 279 278 278 279 280 279 279 279 280 280 280 280 280 280 280 279 278 278 278 277 277 277 277 277 277 277 276 276 276 276 275 275 275 275 275 275 275 275 275 274 273 273 273 273 273 273 272 272 272 272 272 272 271 270 270 271 272 272 273 274 275 276 277
278 277 277 277 276 276 276 276 275 274 273 272 272 272 272 272 272 272 272 273 274 274 275 275 276 276 276 276 277 278 278 278 279 279 280 280 280 280 280 280 279 279 278 278 278 277 278 278 278 278 278 279 279 279 278 278 277 277 277 277 277 277 277 277 277 276 276 275 275 275 275 274 274 274 274 274 274 274 274 273 272 272 272 272 273 273 272 271 271 271 272 272 272 271 270 270 271 271 272 272 273 274 275
280 280 280 280 280 280 280 279 278 277 276 275 274 274 273 273 273 273 273 273 274 275 275 275 276 276 276 276 277 277 278 278 278 279 280 280 280 280 281 280 280 279 278 277 277 276 277 277 277 277 277 277 277 277 276 275 275 275 275 275 275 276 276 276 276 275 275 274 274 274 274 273 273 273 273 273 273 273 273 273 272 271 271 272 272 273 272 271 271 271 271 272 273 272 271 270 270 270 270 271 272 273 274
282 282 282 282 283 283 282 281 281 280 279 278 278 277 276 275 275 275 275 275 275 275 276 276 276 276 276 277 277 277 277 277 278 278 279 279 280 280 281 280 280 279 278 277 277 276 276 276 276 276 276 276 275 274 274 274 273 273 273 273 274 274 275 275 275 274 274 274 273 273 272 272 272 271 271 271 272 272 272 272 271 270 270 271 272 272 273 272 271 271 271 272 273 273 272 271 270 270 270 270 271 272 273
284 284 284 284 284 284 284 283 283 282 281 281 280 280 279 278 278 278 278 277 277 277 277 276 276 276 277 277 277 277 277 277 277 277 278 279 279 280 280 280 279 279 278 277 276 276 276 275 275 275 275 274 273 272 272 272 272 272 272 272 272 272 273 273 273 273 273 273 272 272 271 271 270 270 270 270 270 270 271 271 270 270 269 270 271 272 273 272 271 271 271 271 272 273 272 272 270 269 269 269 270 270 271
285 285 285 285 286 286 285 285 284 284 284 283 283 282 282 281 281 281 280 280 279 279 278 278 278 278 278 278 278 278 278 278 278 278 278 279 279 279 279 279 278 278 278 277 276 276 275 275 274 274 274 273 272 271 271 271 271 271 271 271 271 271 271 271 271 272 272 272 272 271 270 269 269 269 269 269 269 269 269 269 269 269 269 269 270 271 272 272 272 271 271 271 271 271 272 271 270 269 268 268 268 269 269
285 286 286 286 287 287 287 286 286 286 286 285 285 284 284 284 284 283 282 282 281 281 281 281 281 281 280 280 280 280 280 280 280 280 280 280 279 279 278 278 278 277 277 276 276 276 275 275 274 274 273 272 271 271 271 271 271 270 270 270 270 269 269 269 270 270 271 271 270 270 269 268 268 267 267 267 267 267 268 268 268 268 268 268 268 270 271 271 271 271 270 270 270 270 270 270 269 268 267 266 267 268 269
286 286 287 288 288 288 288 288 288 288 287 287 286 286 286 285 285 285 284 284 284 283 284 284 284 284 284 284 284 283 283 283 283 283 282 281 281 280 279 279 278 278 277 277 276 276 276 275 275 274 273 272 271 271 271 271 270 270 270 269 269 269 269 269 269 269 269 269 269 269 268 268 267 266 266 266 266 266 267 267 267 267 267 266 267 268 269 270 270 270 270 270 269 269 268 269 269 268 267 266 266 266 267
287 287 288 288 289 290 290 289 289 289 288 288 287 287 286 286 286 286 286 286 286 286 287 287 287 287 286 286 286 285 285 285 285 285 284 284 283 282 281 280 279 279 278 278 277 277 277 276 275 274 273 273 272 272 272 271 271 270 269 269 269 269 269 269 269 268 268 268 268 268 268 267 267 266 265 265 265 266 266 266 266 266 265 265 265 266 268 269 269 270 270 269 269 268 268 268 268 268 268 266 265 265 266
288 288 288 289 290 290 290 290 289 289 288 288 287 287 287 288 288 288 288 288 288 289 289 289 289 288 287 287 287 286 286 286 286 286 286 286 285 284 283 282 281 280 280 279 279 278 278 277 276 275 274 274 273 273 272 272 272 271 270 270 269 269 269 269 269 268 268 267 267 267 267 267 266 265 265 264 264 265 265 266 265 265 264 263 263 264 266 268 269 269 269 270 269 269 268 267 267 267 267 266 265 264 264
289 289 289 290 290 290 290 290 289 289 288 288 288 288 289 290 290 290 290 289 289 289 289 289 289 288 288 288 287 287 287 287 287 287 287 286 286 285 284 284 283 283 282 282 281 280 279 278 277 276 276 275 274 274 273 273 272 272 271 271 270 269 269 268 268 268 268 267 267 267 267 267 266 265 264 263 263 264 264 264 264 264 263 262 262 263 265 266 268 269 269 270 270 269 268 267 266 266 266 265 265 264 264
289 289 289 290 290 289 289 290 290 290 289 289 289 290 291 291 291 290 290 290 289 289 289 289 288 288 288 288 288 288 288 288 288 288 287 286 285 285 286 286 286 285 285 284 282 281 281 280 279 278 277 276 276 275 274 274 273 272 272 271 271 270 269 268 268 267 267 267 267 266 266 266 265 265 264 263 263 263 263 263 263 262 261 261 260 261 263 265 267 268 269 270 271 270 269 267 266 265 265 266 266 265 265
289 289 289 290 290 290 290 291 291 291 290 291 291 291 292 291 291 290 290 290 289 289 289 289 289 288 287 287 288 289 289 288 288 287 286 284 284 285 287 288 288 288 287 285 284 284 283 282 281 280 279 278 278 277 277 276 275 274 273 273 272 271 270 269 268 267 266 266 266 265 265 265 264 264 263 263 262 262 262 262 261 261 260 259 259 260 262 264 266 267 269 270 270 270 270 268 267 266 266 266 267 266 266
290 290 290 291 291 292 292 292 292 292 292 292 292 292 292 291 290 290 290 289 289 289 288 288 289 289 288 287 288 290 289 288 287 285 282 283 284 284 285 287 288 288 287 287 288 288 287 285 284 282 282 281 281 281 280 280 279 278 276 275 274 273 272 270 269 267 265 264 263 263 263 263 263 263 263 262 262 261 260 260 260 260 259 258 257 258 260 263 265 266 268 269 270 270 270 269 268 267 266 266 266 266 265
292 292 293 293 293 293 294 294 293 293 293 292 292 292 292 291 291 290 290 290 289 289 289 287 287 288 289 288 289 289 288 287 286 284 281 283 286 287 285 285 285 285 288 291 292 290 288 286 285 285 285 285 286 286 286 285 283 282 280 279 278 276 275 273 270 268 265 263 261 261 261 261 261 261 261 261 261 260 259 259 259 258 257 256 255 257 259 261 263 265 266 268 268 269 269 268 268 267 266 265 265 264 264
294 295 295 295 295 295 295 294 294 294 294 292 292 292 293 292 291 291 291 290 290 290 289 289 288 287 287 287 287 287 288 287 285 285 284 283 283 283 282 278 275 276 282 290 293 292 288 287 289 291 291 292 291 290 289 287 286 285 284 283 281 280 278 276 273 270 267 264 262 260 260 259 259 259 259 260 259 259 258 257 257 256 255 254 254 255 257 259 262 263 264 265 266 267 268 268 267 266 265 264 264 264 264
297 297 297 296 296 296 295 295 295 295 295 293 293 293 293 293 292 292 292 291 291 290 290 290 288 286 284 284 284 285 287 286 286 285 284 282 279 275 273 271 273 276 282 284 288 291 290 290 292 293 293 292 291 289 288 286 285 285 285 283 282 281 279 277 275 272 269 267 265 263 261 259 258 258 257 257 257 257 256 256 255 254 253 252 251 253 255 258 260 261 262 263 265 266 267 267 267 266 265 264 263 263 263
299 299 298 298 297 297 296 296 296 296 295 294 293 292 293 293 293 293 292 292 291 290 289 289 288 286 284 284 285 286 286 286 285 283 282 281 278 273 269 270 273 276 279 277 272 272 281 289 292 292 290 289 289 288 286 284 284 284 282 281 280 279 278 276 274 272 271 270 268 266 264 262 259 257 256 255 255 255 255 254 253 252 251 250 250 251 254 256 258 259 261 262 263 265 266 266 266 265 264 263 262 262 262
300 300 299 299 298 298 298 297 296 295 295 294 293 292 292 293 293 292 291 291 290 289 288 288 287 287 286 285 285 286 285 284 282 281 280 279 278 277 274 268 264 263 269 270 268 269 277 286 292 292 290 288 287 286 284 283 281 279 278 277 276 276 275 274 272 271 270 270 269 268 266 264 262 258 256 254 254 254 253 253 252 251 249 248 248 250 253 255 257 258 259 261 262 264 265 265 265 264 263 262 262 262 261
301 301 300 300 300 300 298 297 296 295 295 294 293 292 293 292 292 290 290 290 289 289 289 288 288 287 288 287 285 285 284 282 280 279 278 278 278 278 276 271 265 260 258 263 269 274 277 281 287 291 289 287 285 282 281 280 279 277 275 275 274 274 273 272 270 268 267 267 267 267 267 266 264 261 258 255 254 253 252 252 251 249 248 247 248 250 252 254 256 257 258 259 261 263 265 265 265 264 263 262 262 261 261
302 302 302 302 301 300 298 297 296 295 294 294 293 292 292 291 290 290 290 290 290 290 290 288 287 287 287 287 285 283 281 280 279 278 278 278 277 276 275 274 274 273 270 268 268 271 274 279 279 279 283 287 286 283 281 280 280 278 277 276 275 274 273 271 269 267 265 264 264 264 264 264 264 263 260 257 254 253 251 251 250 248 247 246 247 249 252 254 255 256 257 258 260 263 264 265 265 265 263 262 262 261 260
304 303 303 302 301 300 299 298 297 296 294 294 293 292 291 290 291 291 291 291 291 291 289 287 287 287 287 286 283 280 279 280 280 278 276 275 275 274 274 273 273 273 272 272 271 270 269 270 270 273 278 285 287 285 283 280 279 279 279 277 276 274 271 269 268 266 265 264 263 262 262 262 262 261 260 258 255 252 251 250 248 247 246 246 247 249 251 253 254 255 256 257 259 262 265 266 266 265 263 262 261 260 259
305 304 303 303 302 301 300 299 297 296 295 294 293 291 291 291 292 293 293 292 292 291 289 288 288 287 286 284 281 279 279 281 282 279 274 270 270 273 274 273 273 273 273 273 273 272 269 266 266 268 270 273 280 285 284 280 277 276 276 275 274 272 270 269 268 267 266 265 263 262 261 261 260 260 259 257 255 252 250 248 247 246 245 245 247 249 252 253 254 254 255 256 259 263 266 268 267 265 263 261 260 259 258
306 305 304 303 303 303 301 300 298 297 297 296 294 293 292 293 294 294 293 293 292 291 290 289 288 287 285 283 282 281 281 281 281 279 274 269 269 272 273 272 273 274 275 275 274 272 269 269 269 267 265 265 269 276 280 280 278 276 275 273 273 272 271 271 270 269 268 267 265 264 262 260 259 259 258 257 254 252 249 247 246 245 245 245 247 249 251 253 253 253 253 255 259 263 268 269 268 265 263 261 259 258 257